DW1902 Weather Reports


Display with metric or nautical units.
time (UTC)temp
F
wind
direction
speed
MPH
gust
MPH
rain 1hr
in
rain 24hr
in
rain mn
in
humidity
%
barometer
mb
20170721124205 74 107 0.0 0.0 0.00 0.00 0.00 85 1007.7
20170721123705 73 107 0.0 0.0 0.00 0.00 0.00 86 1007.7
20170721123206 73 107 0.0 0.0 0.00 0.00 0.00 85 1007.8
20170721122706 72 107 0.0 0.0 0.00 0.00 0.00 86 1007.9
20170721122205 72 107 0.0 4.0 0.00 0.00 0.00 87 1007.9
20170721121706 71 107 0.0 4.0 0.00 0.00 0.00 89 1008.0
20170721121206 71 107 0.0 4.0 0.00 0.00 0.00 89 1008.1
20170721120706 71 96 0.0 0.0 0.00 0.00 0.00 89 1008.1
20170721120206 70 35 0.0 1.0 0.00 0.00 0.00 90 1008.3
20170721115705 70 11 0.0 1.0 0.00 0.00 0.00 90 1008.3
20170721115206 70 11 0.0 1.0 0.00 0.00 0.00 90 1008.4
20170721114705 70 11 0.0 3.0 0.00 0.00 0.00 90 1008.5
20170721114205 69 11 0.0 7.0 0.00 0.00 0.00 91 1008.5
20170721113706 68 11 1.0 7.0 0.00 0.00 0.00 92 1008.4
20170721113206 68 11 1.0 0.0 0.00 0.00 0.00 93 1008.4
20170721112705 68 5 0.0 0.0 0.00 0.00 0.00 93 1008.5
20170721112206 67 268 0.0 0.0 0.00 0.00 0.00 94 1008.2
20170721111707 67 268 0.0 0.0 0.00 0.00 0.00 94 1008.2
20170721111206 67 268 0.0 0.0 0.00 0.00 0.00 95 1008.1
20170721110705 67 268 0.0 0.0 0.00 0.00 0.00 95 1008.2
20170721110206 66 268 0.0 0.0 0.00 0.00 0.00 96 1008.3
20170721105705 65 268 0.0 0.0 0.00 0.00 0.00 97 1008.3
20170721105206 65 267 0.0 0.0 0.00 0.00 0.00 97 1008.3
20170721104706 64 267 0.0 0.0 0.00 0.00 0.00 98 1008.2
20170721104206 64 267 0.0 0.0 0.00 0.00 0.00 98 1008.3
20170721103706 63 267 0.0 0.0 0.00 0.00 0.00 99 1008.3
20170721103206 63 267 0.0 0.0 0.00 0.00 0.00 98 1008.3
20170721102705 63 267 0.0 0.0 0.00 0.00 0.00 99 1008.2
20170721102206 62 267 0.0 0.0 0.00 0.00 0.00 99 1008.2
20170721101707 62 267 0.0 0.0 0.00 0.00 0.00 100 1008.1
20170721101206 62 267 0.0 0.0 0.00 0.00 0.00 99 1008.0
20170721100705 62 267 0.0 0.0 0.00 0.00 0.00 100 1007.9
20170721100206 62 267 0.0 0.0 0.00 0.00 0.00 100 1007.9
20170721095705 61 267 0.0 0.0 0.00 0.00 0.00 100 1007.9
20170721095206 62 269 0.0 0.0 0.00 0.00 0.00 100 1008.0
20170721094706 62 269 0.0 0.0 0.00 0.00 0.00 100 1007.9
20170721094207 62 269 0.0 0.0 0.00 0.00 0.00 100 1008.0
20170721093705 62 269 0.0 0.0 0.00 0.00 0.00 100 1008.0
20170721093206 62 269 0.0 0.0 0.00 0.00 0.00 100 1007.9
20170721092706 62 269 0.0 0.0 0.00 0.00 0.00 100 1008.0
20170721092207 62 269 0.0 0.0 0.00 0.00 0.00 100 1007.9
20170721091706 62 269 0.0 0.0 0.00 0.00 0.00 100 1007.9
20170721091206 62 269 0.0 0.0 0.00 0.00 0.00 100 1007.9
20170721090706 62 269 0.0 0.0 0.00 0.00 0.00 100 1007.9
20170721090205 62 269 0.0 0.0 0.00 0.00 0.00 100 1007.9
20170721085705 62 269 0.0 0.0 0.00 0.00 0.00 100 1007.9
20170721085208 62 269 0.0 0.0 0.00 0.00 0.00 100 1008.0
20170721084705 62 269 0.0 0.0 0.00 0.00 0.00 100 1008.0
20170721084205 62 269 0.0 0.0 0.00 0.00 0.00 100 1008.0
20170721083706 62 269 0.0 0.0 0.00 0.00 0.00 100 1008.0
20170721083206 62 269 0.0 0.0 0.00 0.00 0.00 100 1008.1
20170721082708 62 269 0.0 0.0 0.00 0.00 0.00 100 1008.1
20170721082206 62 269 0.0 0.0 0.00 0.00 0.00 100 1008.2
20170721081706 62 269 0.0 0.0 0.00 0.00 0.00 100 1008.2
20170721081205 62 269 0.0 0.0 0.00 0.00 0.00 100 1008.2
20170721080706 62 269 0.0 0.0 0.00 0.00 0.00 100 1008.3
20170721080206 62 269 0.0 0.0 0.00 0.00 0.00 100 1008.3
20170721075707 63 269 0.0 0.0 0.00 0.00 0.00 100 1008.3
20170721075206 63 269 0.0 0.0 0.00 0.00 0.00 100 1008.3
20170721074706 63 269 0.0 0.0 0.00 0.00 0.00 100 1008.0
20170721074206 63 269 0.0 0.0 0.00 0.00 0.00 100 1008.0
20170721073705 63 269 0.0 0.0 0.00 0.00 0.00 100 1008.0
20170721073205 63 269 0.0 0.0 0.00 0.00 0.00 100 1008.0
20170721072705 63 269 0.0 0.0 0.00 0.00 0.00 100 1008.0
20170721072205 63 269 0.0 0.0 0.00 0.00 0.00 100 1008.1
20170721071706 64 269 0.0 0.0 0.00 0.00 0.00 100 1008.2
20170721071206 64 269 0.0 0.0 0.00 0.00 0.00 100 1008.4
20170721070705 64 269 0.0 0.0 0.00 0.00 0.00 100 1008.3
20170721070206 64 269 0.0 0.0 0.00 0.00 0.00 100 1008.3
20170721065706 64 269 0.0 0.0 0.00 0.00 0.00 100 1008.3
20170721065206 64 269 0.0 0.0 0.00 0.00 0.00 100 1008.3
20170721064705 65 269 0.0 0.0 0.00 0.00 0.00 100 1008.4
20170721064206 65 269 0.0 0.0 0.00 0.00 0.00 99 1008.4
20170721063705 65 269 0.0 0.0 0.00 0.00 0.00 99 1008.5
20170721063205 65 269 0.0 0.0 0.00 0.00 0.00 99 1008.6
20170721062706 65 269 0.0 0.0 0.00 0.00 0.00 99 1008.6
20170721062206 65 269 0.0 0.0 0.00 0.00 0.00 99 1008.8
20170721061706 65 269 0.0 0.0 0.00 0.00 0.00 99 1008.7
20170721061206 66 269 0.0 0.0 0.00 0.00 0.00 99 1008.9
20170721060705 66 269 0.0 0.0 0.00 0.00 0.00 99 1008.9
20170721060206 66 269 0.0 0.0 0.00 0.00 0.00 99 1009.0
20170721055706 66 269 0.0 0.0 0.00 0.00 0.00 99 1009.1
20170721055206 66 269 0.0 0.0 0.00 0.00 0.00 98 1009.0
20170721054706 66 269 0.0 0.0 0.00 0.00 0.00 98 1008.9
20170721054206 67 269 0.0 0.0 0.00 0.00 0.00 97 1008.8
20170721053706 67 269 0.0 0.0 0.00 0.00 0.00 97 1008.9
20170721053206 67 269 0.0 0.0 0.00 0.00 0.00 97 1008.9
20170721052705 67 269 0.0 0.0 0.00 0.00 0.00 97 1009.0
20170721052206 67 269 0.0 0.0 0.00 0.00 0.00 97 1009.1
20170721051705 67 269 0.0 0.0 0.00 0.00 0.00 97 1009.2
20170721051206 67 269 0.0 0.0 0.00 0.00 0.00 97 1009.3
20170721050705 67 269 0.0 0.0 0.00 0.00 0.00 97 1009.2
20170721050206 67 269 0.0 0.0 0.00 0.00 0.00 96 1009.0
20170721045706 68 269 0.0 0.0 0.00 0.00 0.00 96 1009.0
20170721045206 67 269 0.0 0.0 0.00 0.00 0.00 97 1009.0
20170721044704 67 269 0.0 0.0 0.00 0.00 0.00 97 1009.2
20170721044207 67 269 0.0 0.0 0.00 0.00 0.00 97 1009.4
20170721043705 68 269 0.0 0.0 0.00 0.00 0.00 97 1009.5
20170721043206 68 269 0.0 0.0 0.00 0.00 0.00 97 1009.4
20170721042705 68 269 0.0 0.0 0.00 0.00 0.00 96 1009.4
20170721042212 68 269 0.0 0.0 0.00 0.00 0.00 96 1009.4
20170721041717 68 269 0.0 0.0 0.00 0.00 0.00 96 1009.4
20170721041225 69 269 0.0 0.0 0.00 0.00 0.00 95 1009.3
20170721040721 69 269 0.0 0.0 0.00 0.00 0.00 93 1009.3
20170721040220 69 269 0.0 0.0 0.00 0.00 0.00 93 1009.3
20170721035723 69 269 0.0 0.0 0.00 0.00 0.00 93 1009.5
20170721035206 69 269 0.0 0.0 0.00 0.00 0.00 93 1009.6
20170721034706 70 269 0.0 0.0 0.00 0.00 0.00 92 1009.6
20170721034206 70 269 0.0 2.0 0.00 0.00 0.00 92 1009.5
20170721033710 69 269 0.0 2.0 0.00 0.00 0.00 94 1009.4
20170721033206 70 269 0.0 2.0 0.00 0.00 0.00 93 1009.5
20170721032705 70 269 0.0 1.0 0.00 0.00 0.00 93 1009.5
20170721032206 70 269 0.0 1.0 0.00 0.00 0.00 92 1009.6
20170721031706 71 270 0.0 2.0 0.00 0.00 0.00 89 1009.6
20170721031205 71 269 0.0 2.0 0.00 0.00 0.00 89 1009.6
20170721030706 71 269 0.0 2.0 0.00 0.00 0.00 90 1009.6
20170721030206 71 270 0.0 2.0 0.00 0.00 0.00 90 1009.7
20170721025706 71 269 0.0 4.0 0.00 0.00 0.00 89 1009.8
20170721025206 71 269 1.0 4.0 0.00 0.00 0.00 90 1009.9
20170721024705 71 270 1.0 4.0 0.00 0.00 0.00 90 1009.9
20170721024205 71 269 1.0 6.0 0.00 0.00 0.00 90 1009.9
20170721023705 72 269 1.0 6.0 0.00 0.00 0.00 87 1009.8
20170721023206 72 269 2.0 4.0 0.00 0.00 0.00 86 1009.9
20170721022706 72 269 1.0 3.0 0.00 0.00 0.00 87 1010.0
20170721022206 72 271 1.0 3.0 0.00 0.00 0.00 89 1009.9
20170721021706 72 271 0.0 2.0 0.00 0.00 0.00 89 1009.8
20170721021208 72 270 0.0 2.0 0.00 0.00 0.00 87 1009.9
20170721020706 72 270 0.0 2.0 0.00 0.00 0.00 87 1009.9
20170721020205 72 270 0.0 3.0 0.00 0.00 0.00 87 1009.9
20170721015705 73 270 0.0 3.0 0.00 0.00 0.00 87 1009.9
20170721015206 73 270 1.0 6.0 0.00 0.00 0.00 86 1009.9
20170721014706 73 270 1.0 6.0 0.00 0.00 0.00 86 1009.9
20170721014205 73 270 2.0 7.0 0.00 0.00 0.00 85 1010.0
20170721013706 73 271 3.0 7.0 0.00 0.00 0.00 84 1009.9
20170721013205 74 271 3.0 7.0 0.00 0.00 0.00 84 1009.8
20170721012707 74 257 3.0 9.0 0.00 0.00 0.00 83 1009.9
20170721012208 75 255 3.0 9.0 0.00 0.00 0.00 82 1009.9
20170721011705 75 250 3.0 8.0 0.00 0.00 0.00 82 1009.9
20170721011206 75 257 2.0 6.0 0.00 0.00 0.00 82 1009.9
20170721010706 75 260 2.0 6.0 0.00 0.00 0.00 82 1009.9
20170721010206 75 259 3.0 7.0 0.00 0.00 0.00 81 1009.9
20170721005705 75 259 3.0 7.0 0.00 0.00 0.00 81 1009.9
20170721005207 75 259 2.0 6.0 0.00 0.00 0.00 81 1009.8
20170721004707 76 263 2.0 6.0 0.00 0.00 0.00 81 1009.7
20170721004206 76 263 2.0 6.0 0.00 0.00 0.00 80 1009.7
20170721003708 76 263 3.0 6.0 0.00 0.00 0.00 80 1009.4
20170721003205 76 262 2.0 6.0 0.00 0.00 0.00 79 1009.5
20170721002707 76 261 2.0 7.0 0.00 0.00 0.00 79 1009.4
20170721002205 77 261 3.0 7.0 0.00 0.00 0.00 78 1009.3
20170721001706 77 257 2.0 8.0 0.00 0.00 0.00 78 1009.3
20170721001205 77 258 3.0 9.0 0.00 0.00 0.00 77 1009.2
20170721000707 78 257 5.0 9.0 0.00 0.00 0.00 76 1009.3
20170721000205 78 270 5.0 11.0 0.00 0.00 0.00 75 1009.3
20170720235706 78 264 6.0 11.0 0.00 0.00 0.00 75 1009.3
20170720235205 78 275 6.0 12.0 0.00 0.00 0.00 74 1009.3
20170720234705 78 269 6.0 12.0 0.00 0.00 0.00 73 1009.2
20170720234206 79 269 6.0 11.0 0.00 0.00 0.00 72 1009.2
20170720233705 79 266 6.0 9.0 0.00 0.00 0.00 73 1009.2
20170720233205 79 277 5.0 10.0 0.00 0.00 0.00 72 1009.3
20170720232706 80 272 6.0 10.0 0.00 0.00 0.00 71 1009.2
20170720232205 80 270 7.0 10.0 0.00 0.00 0.00 71 1009.2
20170720231706 80 255 5.0 10.0 0.00 0.00 0.00 71 1009.2
20170720231205 80 244 3.0 8.0 0.00 0.00 0.00 70 1009.2
20170720230705 80 255 3.0 8.0 0.00 0.00 0.00 70 1009.2
20170720230205 80 243 3.0 8.0 0.00 0.00 0.00 70 1009.3
20170720225705 81 239 3.0 8.0 0.00 0.00 0.00 68 1009.2
20170720225205 81 271 1.0 6.0 0.00 0.00 0.00 68 1009.1
20170720224706 81 271 2.0 8.0 0.00 0.00 0.00 68 1009.0
20170720224208 82 272 4.0 9.0 0.00 0.00 0.00 67 1009.0
20170720223706 82 279 4.0 9.0 0.00 0.00 0.00 66 1009.0
20170720223205 82 281 4.0 9.0 0.00 0.00 0.00 66 1009.1
20170720222706 82 272 3.0 8.0 0.00 0.00 0.00 65 1009.1
20170720222206 82 279 4.0 8.0 0.00 0.00 0.00 66 1009.1
20170720221705 83 279 4.0 10.0 0.00 0.00 0.00 64 1009.1
20170720221206 83 279 4.0 10.0 0.00 0.00 0.00 64 1009.1
20170720220706 83 264 6.0 10.0 0.00 0.00 0.00 63 1009.1
20170720220206 83 267 7.0 12.0 0.00 0.00 0.00 62 1009.1
20170720215706 84 271 7.0 12.0 0.00 0.00 0.00 61 1009.2
20170720215205 84 291 8.0 12.0 0.00 0.00 0.00 61 1009.2
20170720214705 85 262 7.0 12.0 0.00 0.00 0.00 59 1009.2
20170720214206 85 275 5.0 14.0 0.00 0.00 0.00 61 1009.1
20170720213705 85 287 6.0 14.0 0.00 0.00 0.00 60 1009.2
20170720213206 85 300 8.0 13.0 0.00 0.00 0.00 58 1009.1
20170720212706 85 252 7.0 12.0 0.00 0.00 0.00 59 1009.1
20170720212206 85 283 6.0 14.0 0.00 0.00 0.00 58 1008.9
20170720211706 85 247 7.0 15.0 0.00 0.00 0.00 59 1009.0
20170720211205 85 269 7.0 15.0 0.00 0.00 0.00 58 1009.2
20170720210705 85 267 7.0 15.0 0.00 0.00 0.00 59 1009.1
20170720210206 86 246 6.0 13.0 0.00 0.00 0.00 58 1009.2
20170720205705 86 251 6.0 14.0 0.00 0.00 0.00 58 1009.1
20170720205205 86 273 6.0 14.0 0.00 0.00 0.00 58 1009.2
20170720204706 86 285 8.0 14.0 0.00 0.00 0.00 58 1009.1
20170720204205 86 258 8.0 13.0 0.00 0.00 0.00 57 1009.2
20170720203705 86 283 7.0 17.0 0.00 0.00 0.00 58 1009.1
20170720203207 86 329 8.0 18.0 0.00 0.00 0.00 58 1009.1
20170720202706 86 298 9.0 18.0 0.00 0.00 0.00 58 1009.2
20170720202206 86 274 10.0 18.0 0.00 0.00 0.00 57 1009.4
20170720201706 86 296 9.0 17.0 0.00 0.00 0.00 58 1009.5
20170720201206 86 317 9.0 17.0 0.00 0.00 0.00 57 1009.2
20170720200705 86 244 8.0 14.0 0.00 0.00 0.00 57 1009.1
20170720200205 86 262 7.0 15.0 0.00 0.00 0.00 57 1009.1
20170720195706 86 259 8.0 15.0 0.00 0.00 0.00 58 1009.1
20170720195205 86 300 9.0 15.0 0.00 0.00 0.00 60 1009.1
20170720194706 86 275 7.0 13.0 0.00 0.00 0.00 58 1009.1
20170720194206 86 269 6.0 12.0 0.00 0.00 0.00 58 1009.1
20170720193706 85 269 6.0 12.0 0.00 0.00 0.00 59 1009.3
20170720193206 85 292 6.0 12.0 0.00 0.00 0.00 58 1009.4
20170720192706 86 315 7.0 13.0 0.00 0.00 0.00 57 1009.5
20170720192205 86 293 8.0 14.0 0.00 0.00 0.00 59 1009.7
20170720191706 85 269 9.0 14.0 0.00 0.00 0.00 58 1009.6
20170720191205 86 281 9.0 18.0 0.00 0.00 0.00 58 1009.6
20170720190706 85 275 9.0 18.0 0.00 0.00 0.00 59 1009.6
20170720190206 86 238 10.0 18.0 0.00 0.00 0.00 58 1009.6
20170720185706 86 277 9.0 18.0 0.00 0.00 0.00 57 1009.7
20170720185206 86 265 8.0 13.0 0.00 0.00 0.00 58 1009.6
20170720184706 86 257 8.0 15.0 0.00 0.00 0.00 58 1009.7
20170720184205 86 214 9.0 18.0 0.00 0.00 0.00 58 1009.7
20170720183705 86 288 9.0 18.0 0.00 0.00 0.00 56 1009.8
20170720183206 87 259 7.0 18.0 0.00 0.00 0.00 56 1009.8
20170720182705 86 283 7.0 17.0 0.00 0.00 0.00 58 1009.9
20170720182206 86 284 9.0 17.0 0.00 0.00 0.00 58 1010.0
20170720181706 86 259 9.0 17.0 0.00 0.00 0.00 58 1010.1
20170720181206 87 273 9.0 16.0 0.00 0.00 0.00 59 1010.2
20170720180705 85 261 9.0 14.0 0.00 0.00 0.00 59 1010.1
20170720180217 87 269 6.0 17.0 0.00 0.00 0.00 60 1010.1
20170720175706 87 234 7.0 17.0 0.00 0.00 0.00 58 1010.1
20170720175206 87 218 7.0 17.0 0.00 0.00 0.00 58 1010.2
20170720174705 87 263 8.0 14.0 0.00 0.00 0.00 59 1010.3
20170720174206 86 279 7.0 14.0 0.00 0.00 0.00 61 1010.3
20170720173706 86 272 6.0 14.0 0.00 0.00 0.00 61 1010.3
20170720173207 87 248 7.0 14.0 0.00 0.00 0.00 58 1010.3
20170720172706 86 218 7.0 12.0 0.00 0.00 0.00 62 1010.3
20170720172206 85 277 6.0 12.0 0.00 0.00 0.00 61 1010.3
20170720171706 86 262 4.0 12.0 0.00 0.00 0.00 63 1010.3
20170720171205 86 249 5.0 12.0 0.00 0.00 0.00 63 1010.3
20170720170705 85 300 4.0 12.0 0.00 0.00 0.00 62 1010.5
20170720170206 85 199 4.0 12.0 0.00 0.00 0.00 61 1010.5
20170720165708 85 240 5.0 10.0 0.00 0.00 0.00 62 1010.6
20170720165205 85 271 4.0 11.0 0.00 0.00 0.00 64 1010.5
20170720164706 86 223 3.0 11.0 0.00 0.00 0.00 62 1010.4
20170720164206 85 217 3.0 12.0 0.00 0.00 0.00 62 1010.5
20170720163706 84 241 5.0 12.0 0.00 0.00 0.00 65 1010.7
20170720163205 84 299 6.0 11.0 0.00 0.00 0.00 63 1010.7
20170720162706 85 217 5.0 10.0 0.00 0.00 0.00 65 1010.7
20170720162206 84 248 4.0 9.0 0.00 0.00 0.00 65 1010.8
20170720161706 85 215 2.0 8.0 0.00 0.00 0.00 66 1010.8
20170720161206 85 214 3.0 8.0 0.00 0.00 0.00 66 1010.8
20170720160706 84 254 2.0 7.0 0.00 0.00 0.00 69 1010.8
20170720160206 84 300 1.0 8.0 0.00 0.00 0.00 67 1010.9
20170720155706 84 293 3.0 12.0 0.00 0.00 0.00 65 1010.9
20170720155205 83 261 5.0 15.0 0.00 0.00 0.00 69 1010.9
20170720154706 83 292 6.0 15.0 0.00 0.00 0.00 68 1011.0
20170720154206 83 310 7.0 15.0 0.00 0.00 0.00 69 1011.1
20170720153706 83 318 7.0 11.0 0.00 0.00 0.00 69 1011.2
20170720153206 83 249 6.0 10.0 0.00 0.00 0.00 68 1011.3
20170720152706 83 284 4.0 10.0 0.00 0.00 0.00 69 1011.4
20170720152206 83 284 3.0 9.0 0.00 0.00 0.00 69 1011.5
20170720151707 83 237 3.0 9.0 0.00 0.00 0.00 73 1011.6
20170720151206 82 292 3.0 8.0 0.00 0.00 0.00 72 1011.6
20170720150706 82 247 2.0 10.0 0.00 0.00 0.00 74 1011.8
20170720150206 81 268 2.0 10.0 0.00 0.00 0.00 74 1011.7
20170720145706 81 266 3.0 10.0 0.00 0.00 0.00 76 1011.8
20170720145205 80 277 3.0 9.0 0.00 0.00 0.00 76 1011.8
20170720144707 81 279 3.0 10.0 0.00 0.00 0.00 76 1011.7
20170720144206 80 283 4.0 10.0 0.00 0.00 0.00 78 1011.8
20170720143705 80 273 3.0 5.0 0.00 0.00 0.00 77 1011.8
20170720143205 80 208 2.0 7.0 0.00 0.00 0.00 78 1011.8
20170720142706 80 208 2.0 10.0 0.00 0.00 0.00 80 1011.9
20170720142206 79 274 3.0 10.0 0.00 0.00 0.00 81 1011.8
20170720141706 79 265 5.0 11.0 0.00 0.00 0.00 82 1011.8
20170720141205 78 250 6.0 11.0 0.00 0.00 0.00 82 1011.9
20170720140705 78 242 6.0 11.0 0.00 0.00 0.00 83 1012.0
20170720140206 78 288 6.0 10.0 0.00 0.00 0.00 83 1012.0
20170720135706 78 232 5.0 9.0 0.00 0.00 0.00 85 1011.9
20170720135207 77 266 5.0 9.0 0.00 0.00 0.00 86 1011.9
20170720134706 77 294 3.0 9.0 0.00 0.00 0.00 86 1011.9
20170720134206 77 262 2.0 8.0 0.00 0.00 0.00 89 1011.9
20170720133706 76 263 2.0 8.0 0.00 0.00 0.00 89 1011.9
20170720133206 76 261 2.0 7.0 0.00 0.00 0.00 90 1011.9
20170720132706 75 263 2.0 8.0 0.00 0.00 0.00 92 1011.8
20170720132206 74 265 3.0 8.0 0.00 0.00 0.00 93 1011.7
20170720131705 74 269 3.0 8.0 0.00 0.00 0.00 94 1011.8
20170720131205 73 287 4.0 8.0 0.00 0.00 0.00 95 1011.9
20170720130706 73 286 4.0 7.0 0.00 0.00 0.00 95 1011.9
20170720130205 73 281 3.0 9.0 0.00 0.00 0.00 96 1012.1
20170720125706 73 262 3.0 9.0 0.00 0.00 0.00 97 1012.2
20170720125206 72 262 5.0 9.0 0.00 0.00 0.00 98 1012.2
20170720124706 71 273 4.0 8.0 0.00 0.00 0.00 98 1012.2